Regional Weather Roundup
Issued by NWS

Home | Current Version | Previous Version | Graphics & Text | Print | Product List | Glossary On
Versions: 1 2 3 4 5 6 7 8 9 10 11 12 13 14 15 16 17 18 19 20 21 22 23 24 25 26 27 28 29 30 31 32 33 34 35 36 37 38 39 40 41 42 43 44 45 46 47 48 49 50
000
ASUS43 KMKX 172300
RWRWI

WISCONSIN REGIONAL WEATHER ROUNDUP
NATIONAL WEATHER SERVICE MILWAUKEE/SULLIVAN WI
500 PM CST WED DEC 17 2014

NOTE: "FAIR" INDICATES FEW OR NO CLOUDS BELOW 12,000 FEET WITH NO
SIGNIFICANT WEATHER AND/OR OBSTRUCTIONS TO VISIBILITY.

WIZ001-002-006>008-014>016-023>028-180000-
NORTHWEST WISCONSIN

CITY           SKY/WX    TMP DP  RH WIND       PRES   REMARKS
SUPERIOR ARPT  PTCLDY    18  12  77 SW5       30.33R WCI  11
ASHLAND        CLOUDY    23  19  85 N7        30.30R WCI  15
HAYWARD        CLOUDY    18  11  74 CALM      30.28R HAZE
SIREN          MOCLDY    17  10  73 N3        30.31R
CUMBERLAND     CLEAR     16   9  73 N7        30.27S WCI   6
RICE LAKE      CLEAR     18  10  71 NW3       30.29S
CHETEK         CLEAR     17  10  74 CALM      30.28S
LADYSMITH      CLOUDY    20  13  73 NW6       30.27R WCI  13
EAU CLAIRE     NOT AVBL
MENOMONIE      CLOUDY    19  10  69 N6        30.30R WCI  11
NEW RICHMOND   PTCLDY    16  11  80 N3        30.30R
OSCEOLA        MOCLDY    18  10  71 N5        30.33S WCI  11
$$

WIZ003>005-009-010-017-018-180000-
NORTH CENTRAL WISCONSIN

CITY           SKY/WX    TMP DP  RH WIND       PRES   REMARKS
MANITOWISH WTR CLOUDY    21  19  94 N6        30.19R WCI  13
ARBOR VITAE    CLOUDY    22  19  87 NW6       30.19R WCI  14
WOODRUFF       CLOUDY    22  19  87 NW6       30.19R WCI  14
RHINELANDER    CLOUDY    20  16  84 NW8       30.18R WCI  10
EAGLE RIVER    CLOUDY    22  17  82 N8        30.16R WCI  12
LAND O LAKES   CLOUDY    22  19  87 N8        30.18R WCI  12
PHILLIPS       LGT SNOW  19  14  82 NW5       30.22R WCI  12
TOMAHAWK       CLOUDY    20  15  80 NW7       30.21R WCI  11
MEDFORD        CLOUDY    18  11  75 NW7       30.22R WCI   9
MERRILL        CLOUDY    22  15  74 NW7       30.21R WCI  13
$$

WIZ029-030-035-036-043>047-180000-
CENTRAL WISCONSIN

CITY           SKY/WX    TMP DP  RH WIND       PRES   REMARKS
WAUSAU         CLOUDY    22  13  68 NW9       30.20R WCI  12
MOSINEE        CLOUDY    19  16  86 W10       30.22R WCI   8
MARSHFIELD     PTCLDY    17  11  77 NW9       30.23R WCI   6
STEVENS POINT  PTCLDY    18  10  71 W3        30.23R
WAUPACA        PTCLDY    24  14  64 W8        30.23R WCI  15
WAUTOMA        NOT AVBL
WISC RAPIDS    PTCLDY    18  10  71 W9        30.26R WCI   7
CAMP DOUGLAS   NOT AVBL
$$

WIZ011>013-019>022-031-037>040-048>050-180000-
NORTHEAST WISCONSIN

CITY           SKY/WX    TMP DP  RH WIND       PRES   REMARKS
ANTIGO         CLOUDY    21  17  83 NW13      30.17R WCI   9
SHAWANO        CLOUDY    28  17  64 NW10      30.21R WCI  18
OCONTO         CLOUDY    27  18  70 W7G16     30.18R WCI  19
STURGEON BAY   CLOUDY    27  18  69 W13       30.16R WCI  16
GREEN BAY      CLOUDY    26  16  65 W10       30.21R WCI  16
MANITOWOC      NOT AVBL
APPLETON       MOCLDY    23  12  63 W13       30.21R WCI  11
CLINTONVILLE   CLOUDY    27  14  59 NW10      30.21R WCI  17
OSHKOSH        PTCLDY    22  14  71 NW10      30.21R WCI  11
$$

WIZ032>034-041-042-053>061-180000-
SOUTHWEST WISCONSIN

CITY           SKY/WX    TMP DP  RH WIND       PRES   REMARKS
LA CROSSE      CLOUDY    21  12  68 N9        30.30R WCI  11
SPARTA         CLOUDY    19  12  75 NW9       30.29R WCI   8
VIROQUA        PTCLDY    19  14  82 NW7       30.23R WCI   9
BOSCOBEL       CLEAR     22  13  68 NW3       30.28R
PRAIRIE DU CHI CLEAR     24  14  67 W6        30.28R WCI  17
PLATTEVILLE    CLEAR     21  16  79 CALM      30.26R
$$

WIZ056-057-062-063-064-067-068-180000-
SOUTH CENTRAL WISCONSIN

CITY           SKY/WX    TMP DP  RH WIND       PRES   REMARKS
REEDSBURG      CLOUDY    21  14  74 N7        30.24R WCI  12
BARABOO/DELLS  MOCLDY    20  13  73 NW9       30.24R WCI  10
LONE ROCK      PTCLDY    25  12  58 NW6       30.27R WCI  18
MINERAL POINT  CLEAR     23  16  74 W3        30.24R
MADISON        PTCLDY    21  14  74 NW3       30.24R
MIDDLETON      PTCLDY    24  17  74 NW3       30.24R
WATERTOWN      PTCLDY    22  15  76 NW7       30.22R WCI  13
MONROE         CLOUDY    23  18  80 CALM      30.24R
JANESVILLE     CLOUDY    25  18  74 NW6       30.25R WCI  18
$$

WIZ051-052-058>065-066-070>072-180000-
SOUTHEAST WISCONSIN

CITY           SKY/WX    TMP DP  RH WIND       PRES   REMARKS
MILWAUKEE      MOCLDY    25  14  63 NW15      30.22R WCI  13
WAUKESHA       MOCLDY    21  14  73 NW9       30.22R WCI  11
MILWAUKEE/TIMM CLOUDY    25  16  68 NW12      30.23R WCI  14
RACINE         PTCLDY    25  14  63 NW14      30.24R WCI  13
BURLINGTON     CLOUDY    24  15  71 NW9G18    30.22R WCI  14
KENOSHA        MOCLDY    25  16  68 NW9       30.22R WCI  15
FOND DU LAC    PTCLDY    22  13  68 NW10      30.22R WCI  11
SHEBOYGAN      CLEAR     23  14  68 W10       30.20R WCI  12
WEST BEND      FLURRIES  23  18  80 W12       30.20S WCI  12
JUNEAU         CLOUDY    21  15  75 NW9       30.23R WCI  11
$$

LSZ147-162-180000-
LAKE SUPERIOR

STATION/POSITION TIME  TEMP    WIND        PRES    WAVE
                       AIR SEA DIR/SP/G            HT/PER
                 (UTC) (F)     (DEG/KT/KT) (MB)    (FT/S)
DEVILS ISLAND    2200   25     350/  8/  9 1026.8R
PORT WING        2200   24     300/  7/  8 1026.1R
SAXON HARBOR     2200   26      20/ 10/ 13 1025.1R
$$

LMZ867-665-643>646-180000-
LAKE MICHIGAN

STATION/POSITION TIME  TEMP    WIND        PRES    WAVE
                       AIR SEA DIR/SP/G            HT/PER
                 (UTC) (F)     (DEG/KT/KT) (MB)    (FT/S)
CHAMBERS ISLAND  2200   29     300/  9/ 14 1020.7R
NORTHPORT PIER   2217   30     320/ 18/ 25 1019.6R
SISTER BAY       2213          360/ 21/ 24   N/A
ALGOMA LAKESHORE 2214          330/  9/ 16   N/A
KEWAUNEE LAKESHO 2200   26     300/ 12/ 15 1020.4R
SHEBOYGAN LAKESH 2200   25 35  290/ 17/ 20 1023.5R
PORT WASHINGTON  2240   25     290/  8/ 13 1023.7R
MILWAUKEE LAKESH 2200   26     300/ 12/ 18   N/A
KENOSHA   LAKESH 2200   26     290/ 13/ 15 1023.0R
$$

TC  - TEMPERATURE IN CELSIUS
VSB - VISIBILITY IN STATUTE MILES
WCI - WIND CHILL INDEX
HX  - HEAT INDEX



USA.gov is the U.S. government's official web portal to all federal, state and local government web resources and services.